Bundaberg, Queensland

9:55 AM AEST on August 29, 2016 (GMT +1000)
Bundaberg

Weather History for 94387 - December, 2013

Change the Weather History Date:

Sunday, December 1, 2013

  Actual Average Record
Temperature  
Mean Temperature 72 °F -  
Max Temperature 82 °F - - ()
Min Temperature 62 °F - - ()
Cooling Degree Days 7    
Growing Degree Days 22 (Base 50)    
Moisture  
Dew Point 57 °F    
Average Humidity 61    
Maximum Humidity 88    
Minimum Humidity 36    
Precipitation  
Precipitation 0.00 in - - ()
Sea Level Pressure  
Sea Level Pressure 30.08 in    
Wind  
Wind Speed 11 mph ()    
Max Wind Speed 26 mph    
Max Gust Speed 38 mph    
Visibility 6.2 miles    
Events      
T = Trace of Precipitation, MM = Missing Value Source: Averaged Metar Reports

Daily Weather History Graph

Daily Weather History Graph

Search for Another Location

Airport or City:

Trip Planner

Search our weather history database for the weather conditions in past years. The results will help you decide how hot, cold, wet, or windy it might be!

Date:

Astronomy

Dec. 01, 2013 Rise Set
Actual Time 4:52 AM AEST 6:26 PM AEST
Civil Twilight 4:27 AM AEST 6:52 PM AEST
Nautical Twilight 3:57 AM AEST 7:22 PM AEST
Astronomical Twilight 3:25 AM AEST 7:54 PM AEST
Moon 3:07 AM AEST (12/1) 4:32 PM AEST (12/1)
Length of Visible Light 14h 24m
Length of Day
13h 33m
Waning Crescent, 5% of the Moon is Illuminated
Dec 1
Waning Crescent
Dec 3
New
Dec 10
First Quarter
Dec 17
Full
Dec 25
Last Quarter

Hourly Weather History & Observations

Time (AEST) Temp. Heat Index Dew Point Humidity Pressure Visibility Wind Dir Wind Speed Gust Speed Precip Events Conditions
12:00 AM 64 °F - 60 °F 84% 30.05 in - South 8.1 mph - -  
12:00 AM 64.4 °F - 60.8 °F 88% 30.04 in 6.2 mi South 8.1 mph - N/A   Scattered Clouds
1:00 AM 64.4 °F - 59.0 °F 83% 30.04 in 6.2 mi South 8.1 mph - N/A   Scattered Clouds
2:00 AM 64.4 °F - 59.0 °F 83% 30.01 in 6.2 mi South 8.1 mph - N/A   Scattered Clouds
3:00 AM 64 °F - 59 °F 79% 30.04 in - South 6.9 mph - -  
3:00 AM 64.4 °F - 59.0 °F 83% 30.04 in 6.2 mi South 6.9 mph - N/A   Scattered Clouds
4:00 AM 62.6 °F - 59.0 °F 88% 30.04 in 6.2 mi South 9.2 mph - N/A   Scattered Clouds
5:00 AM 62.6 °F - 57.2 °F 82% 30.04 in 6.2 mi South 10.4 mph - N/A   Unknown
6:00 AM 65 °F - 58 °F 70% 30.10 in - South 6.9 mph - -  
6:00 AM 64.4 °F - 57.2 °F 77% 30.09 in 6.2 mi South 6.9 mph - N/A   Scattered Clouds
7:00 AM 69.8 °F - 57.2 °F 64% 30.12 in 6.2 mi South 9.2 mph - N/A   Unknown
8:00 AM 73.4 °F - 59.0 °F 61% 30.12 in 6.2 mi SSE 13.8 mph - N/A   Unknown
9:00 AM 76 °F - 57 °F 41% 30.13 in - SE 16.1 mph - -  
9:00 AM 75.2 °F - 57.2 °F 53% 30.12 in 6.2 mi SE 16.1 mph - N/A   Scattered Clouds
10:00 AM 80.6 °F 80.8 °F 57.2 °F 45% 30.09 in 6.2 mi SSE 16.1 mph - N/A   Scattered Clouds
11:00 AM 80.6 °F 80.8 °F 57.2 °F 45% 30.09 in 6.2 mi ESE 15.0 mph - N/A   Mostly Cloudy
12:00 PM 82 °F - 59 °F 36% 30.08 in - East 18.4 mph - -   Overcast
12:00 PM 82.4 °F 82.5 °F 59.0 °F 45% 30.06 in 6.2 mi East 18.4 mph - N/A   Mostly Cloudy
1:00 PM 78.8 °F - 55.4 °F 44% 30.06 in 6.2 mi East 19.6 mph - N/A   Mostly Cloudy
2:00 PM 80.6 °F 81.1 °F 59.0 °F 48% 30.04 in 6.2 mi East 23.0 mph - N/A   Mostly Cloudy
3:00 PM 78 °F - 56 °F 37% 30.03 in - East 24.2 mph - -  
3:00 PM 78.8 °F - 57.2 °F 47% 30.04 in 6.2 mi East 24.2 mph - N/A   Unknown
3:56 PM 77.0 °F - 55.4 °F 47% 30.04 in 6.2 mi East 26.5 mph 38.0 mph N/A   Unknown
4:00 PM 77.0 °F - 55.4 °F 47% 30.04 in 6.2 mi East 25.3 mph 38.0 mph N/A   Unknown
5:00 PM 75.2 °F - 55.4 °F 50% 30.04 in 6.2 mi ESE 24.2 mph - N/A   Unknown
6:00 PM 73 °F - 55 °F 43% 30.08 in - ESE 21.9 mph - -  
6:00 PM 73.4 °F - 55.4 °F 53% 30.06 in 6.2 mi ESE 21.9 mph 33.4 mph N/A   Unknown
7:00 PM 71.6 °F - 55.4 °F 57% 30.09 in 6.2 mi SE 18.4 mph - N/A   Unknown
8:00 PM 69.8 °F - 55.4 °F 60% 30.12 in 6.2 mi SE 15.0 mph - N/A   Unknown
9:00 PM 68 °F - 56 °F 57% 30.15 in - SSE 9.2 mph - -  
9:00 PM 68.0 °F - 57.2 °F 68% 30.15 in 6.2 mi SSE 9.2 mph - N/A   Unknown
10:00 PM 68.0 °F - 57.2 °F 68% 30.12 in 6.2 mi SSE 11.5 mph - N/A   Unknown
11:00 PM 64.4 °F - 57.2 °F 77% 30.12 in 6.2 mi South 5.8 mph - N/A   Unknown